N172BD KOWB-KLEX

Flight info

Callsign N172BD
Flight time 1h 14m
Altitude 5000
Route EWO
Aircraft C172/L-SFG/C

Departure

Time 2026-05-07 00:01
Airport Owensboro Daviess County Airport (KOWB)

Arrival

Time 2026-05-07 01:15
Airport Blue Grass Airport (KLEX)
Time Latitude Longitude Altitude Speed Heading
2026-05-06 23:31 37.74589 -87.15998 407 ft 0 kts 50°
2026-05-06 23:43 37.74590 -87.15997 407 ft 2 kts 52°
2026-05-06 23:43 37.74559 -87.15965 407 ft 8 kts 161°
2026-05-06 23:43 37.74546 -87.15956 407 ft 0 kts 146°
2026-05-06 23:45 37.74545 -87.15956 407 ft 0 kts 146°
2026-05-06 23:45 37.74517 -87.15970 407 ft 10 kts 231°
2026-05-06 23:45 37.74543 -87.16042 407 ft 12 kts 324°
2026-05-06 23:45 37.74512 -87.16139 407 ft 15 kts 229°
2026-05-06 23:46 37.74466 -87.16212 407 ft 16 kts 232°
2026-05-06 23:46 37.74400 -87.16318 407 ft 15 kts 231°
2026-05-06 23:46 37.74338 -87.16418 408 ft 14 kts 232°
2026-05-06 23:46 37.74280 -87.16515 408 ft 14 kts 232°
2026-05-06 23:47 37.74202 -87.16563 408 ft 14 kts 179°
2026-05-06 23:47 37.74171 -87.16561 408 ft 0 kts 176°
2026-05-06 23:47 37.74168 -87.16561 408 ft 3 kts 175°
2026-05-06 23:48 37.74097 -87.16557 409 ft 14 kts 179°
2026-05-06 23:48 37.73977 -87.16552 407 ft 20 kts 176°
2026-05-06 23:48 37.73835 -87.16543 407 ft 21 kts 178°
2026-05-06 23:48 37.73681 -87.16536 406 ft 23 kts 179°
2026-05-06 23:49 37.73517 -87.16528 405 ft 24 kts 178°
2026-05-06 23:49 37.73346 -87.16520 404 ft 24 kts 178°
2026-05-06 23:49 37.73179 -87.16511 404 ft 24 kts 177°
2026-05-06 23:49 37.73015 -87.16503 403 ft 23 kts 178°
2026-05-06 23:50 37.72856 -87.16494 402 ft 21 kts 178°
2026-05-06 23:50 37.72712 -87.16576 402 ft 0 kts 268°
2026-05-06 23:59 37.72711 -87.16583 402 ft 5 kts 267°
2026-05-06 23:59 37.72738 -87.16671 402 ft 18 kts 345°
2026-05-06 23:59 37.72965 -87.16684 405 ft 54 kts 358°
2026-05-07 00:00 37.73459 -87.16705 412 ft 84 kts 357°
2026-05-07 00:00 37.74058 -87.16755 549 ft 87 kts 354°
2026-05-07 00:00 37.74709 -87.16783 593 ft 98 kts 358°
2026-05-07 00:00 37.75381 -87.16806 730 ft 95 kts 358°
2026-05-07 00:01 37.76040 -87.16841 872 ft 94 kts 356°
2026-05-07 00:01 37.76680 -87.16874 1017 ft 91 kts 358°
2026-05-07 00:01 37.77311 -87.16910 1177 ft 92 kts 358°
2026-05-07 00:01 37.77957 -87.16957 1339 ft 93 kts 357°
2026-05-07 00:02 37.78594 -87.16997 1499 ft 90 kts 358°
2026-05-07 00:02 37.79217 -87.17054 1651 ft 89 kts 357°
2026-05-07 00:02 37.79835 -87.17095 1806 ft 89 kts 357°
2026-05-07 00:02 37.80453 -87.17136 1954 ft 89 kts 357°
2026-05-07 00:03 37.81066 -87.17176 2113 ft 89 kts 357°
2026-05-07 00:03 37.81690 -87.17214 2262 ft 90 kts 357°
2026-05-07 00:03 37.82306 -87.17257 2418 ft 88 kts 356°
2026-05-07 00:03 37.82916 -87.17287 2566 ft 88 kts 357°
2026-05-07 00:04 37.83522 -87.17316 2715 ft 86 kts 358°
2026-05-07 00:04 37.84118 -87.17351 2862 ft 85 kts 357°
2026-05-07 00:04 37.84705 -87.17357 3014 ft 84 kts 13°
2026-05-07 00:04 37.85194 -87.16952 3173 ft 86 kts 44°
2026-05-07 00:05 37.85435 -87.16258 3332 ft 90 kts 77°
2026-05-07 00:05 37.85359 -87.15458 3480 ft 92 kts 95°
2026-05-07 00:05 37.85246 -87.14661 3628 ft 92 kts 94°
2026-05-07 00:05 37.85132 -87.13872 3775 ft 92 kts 95°
2026-05-07 00:06 37.85019 -87.13086 3920 ft 90 kts 94°
2026-05-07 00:06 37.84909 -87.12316 4072 ft 88 kts 93°
2026-05-07 00:06 37.84801 -87.11558 4213 ft 86 kts 94°
2026-05-07 00:06 37.84694 -87.10814 4360 ft 85 kts 93°
2026-05-07 00:07 37.84591 -87.10094 4507 ft 81 kts 93°
2026-05-07 00:07 37.84492 -87.09401 4625 ft 81 kts 94°
2026-05-07 00:07 37.84389 -87.08684 4732 ft 85 kts 94°
2026-05-07 00:07 37.84282 -87.07936 4832 ft 89 kts 94°
2026-05-07 00:08 37.84164 -87.07122 4888 ft 99 kts 95°
2026-05-07 00:08 37.84033 -87.06231 4938 ft 106 kts 96°
2026-05-07 00:08 37.83896 -87.05319 4973 ft 106 kts 96°
2026-05-07 00:08 37.83764 -87.04409 4999 ft 106 kts 96°
2026-05-07 00:09 37.83628 -87.03466 5010 ft 112 kts 97°
2026-05-07 00:09 37.83483 -87.02475 5008 ft 116 kts 97°
2026-05-07 00:09 37.83338 -87.01478 5013 ft 117 kts 96°
2026-05-07 00:09 37.83188 -87.00444 5011 ft 118 kts 97°
2026-05-07 00:10 37.83038 -86.99419 5009 ft 118 kts 97°
2026-05-07 00:10 37.82891 -86.98399 5007 ft 120 kts 97°
2026-05-07 00:10 37.82738 -86.97346 5001 ft 120 kts 97°
2026-05-07 00:10 37.82589 -86.96313 5003 ft 119 kts 97°
2026-05-07 00:11 37.82440 -86.95291 5003 ft 118 kts 97°
2026-05-07 00:11 37.82293 -86.94267 4997 ft 118 kts 97°
2026-05-07 00:11 37.82146 -86.93255 4995 ft 119 kts 97°
2026-05-07 00:11 37.81997 -86.92234 4997 ft 118 kts 97°
2026-05-07 00:12 37.81849 -86.91217 4993 ft 117 kts 98°
2026-05-07 00:12 37.81701 -86.90199 4995 ft 118 kts 98°
2026-05-07 00:12 37.81553 -86.89181 4993 ft 117 kts 98°
2026-05-07 00:12 37.81406 -86.88171 4988 ft 116 kts 98°
2026-05-07 00:13 37.81260 -86.87164 4988 ft 116 kts 98°
2026-05-07 00:13 37.81113 -86.86159 4988 ft 116 kts 98°
2026-05-07 00:13 37.80966 -86.85149 4986 ft 116 kts 98°
2026-05-07 00:13 37.80819 -86.84134 4992 ft 119 kts 98°
2026-05-07 00:14 37.80666 -86.83094 4991 ft 121 kts 98°
2026-05-07 00:14 37.80513 -86.82047 4997 ft 122 kts 98°
2026-05-07 00:14 37.80359 -86.80990 4999 ft 122 kts 98°
2026-05-07 00:14 37.80205 -86.79938 5001 ft 122 kts 98°
2026-05-07 00:15 37.80049 -86.78882 5003 ft 122 kts 98°
2026-05-07 00:15 37.79892 -86.77811 4995 ft 124 kts 98°
2026-05-07 00:15 37.79736 -86.76746 4996 ft 123 kts 98°
2026-05-07 00:15 37.79579 -86.75680 4993 ft 124 kts 99°
2026-05-07 00:16 37.79422 -86.74610 4994 ft 124 kts 98°
2026-05-07 00:16 37.79264 -86.73542 4993 ft 124 kts 98°
2026-05-07 00:16 37.79107 -86.72469 4993 ft 125 kts 99°
2026-05-07 00:16 37.78948 -86.71385 4996 ft 126 kts 99°
2026-05-07 00:17 37.78787 -86.70297 4995 ft 125 kts 98°
2026-05-07 00:17 37.78629 -86.69223 4994 ft 124 kts 99°
2026-05-07 00:17 37.78472 -86.68153 4997 ft 124 kts 99°
2026-05-07 00:17 37.78313 -86.67077 4987 ft 123 kts 99°
2026-05-07 00:18 37.78157 -86.66025 4984 ft 121 kts 98°
2026-05-07 00:18 37.78005 -86.64990 4982 ft 121 kts 99°
2026-05-07 00:18 37.77849 -86.63935 4978 ft 120 kts 99°
2026-05-07 00:18 37.77698 -86.62914 4975 ft 120 kts 98°
2026-05-07 00:19 37.77544 -86.61872 4979 ft 120 kts 99°
2026-05-07 00:19 37.77389 -86.60829 4974 ft 122 kts 98°
2026-05-07 00:19 37.77233 -86.59773 4981 ft 122 kts 99°
2026-05-07 00:19 37.77076 -86.58721 4979 ft 121 kts 99°
2026-05-07 00:20 37.76921 -86.57675 4977 ft 122 kts 99°
2026-05-07 00:20 37.76765 -86.56623 4978 ft 122 kts 99°
2026-05-07 00:20 37.76608 -86.55572 4978 ft 122 kts 99°
2026-05-07 00:20 37.76453 -86.54522 4980 ft 122 kts 99°
2026-05-07 00:21 37.76296 -86.53465 4982 ft 122 kts 99°
2026-05-07 00:21 37.76138 -86.52410 4977 ft 122 kts 99°
2026-05-07 00:21 37.75982 -86.51361 4978 ft 121 kts 99°
2026-05-07 00:21 37.75826 -86.50316 4978 ft 121 kts 99°
2026-05-07 00:22 37.75671 -86.49273 4980 ft 121 kts 99°
2026-05-07 00:22 37.75515 -86.48234 4976 ft 120 kts 99°
2026-05-07 00:22 37.75362 -86.47203 4971 ft 120 kts 99°
2026-05-07 00:22 37.75207 -86.46166 4975 ft 121 kts 99°
2026-05-07 00:23 37.75054 -86.45138 4973 ft 120 kts 99°
2026-05-07 00:23 37.74898 -86.44097 4974 ft 121 kts 99°
2026-05-07 00:23 37.74740 -86.43040 4974 ft 121 kts 99°
2026-05-07 00:23 37.74584 -86.41998 4976 ft 121 kts 99°
2026-05-07 00:24 37.74427 -86.40954 4976 ft 122 kts 99°
2026-05-07 00:24 37.74272 -86.39919 4975 ft 122 kts 99°
2026-05-07 00:24 37.74115 -86.38874 4972 ft 121 kts 99°
2026-05-07 00:24 37.73958 -86.37835 4971 ft 120 kts 99°
2026-05-07 00:25 37.73803 -86.36797 4968 ft 120 kts 100°
2026-05-07 00:25 37.73648 -86.35765 4972 ft 120 kts 99°
2026-05-07 00:25 37.73492 -86.34729 4972 ft 120 kts 99°
2026-05-07 00:25 37.73337 -86.33693 4974 ft 120 kts 99°
2026-05-07 00:26 37.73179 -86.32654 4969 ft 120 kts 99°
2026-05-07 00:26 37.73024 -86.31624 4970 ft 120 kts 100°
2026-05-07 00:26 37.72868 -86.30587 4970 ft 121 kts 100°
2026-05-07 00:26 37.72710 -86.29543 4972 ft 121 kts 100°
2026-05-07 00:27 37.72551 -86.28497 4973 ft 121 kts 99°
2026-05-07 00:27 37.72394 -86.27455 4972 ft 120 kts 100°
2026-05-07 00:27 37.72238 -86.26422 4969 ft 119 kts 99°
2026-05-07 00:27 37.72083 -86.25395 4972 ft 119 kts 100°
2026-05-07 00:28 37.71927 -86.24365 4972 ft 119 kts 100°
2026-05-07 00:28 37.71771 -86.23331 4972 ft 120 kts 100°
2026-05-07 00:28 37.71613 -86.22294 4971 ft 120 kts 100°
2026-05-07 00:28 37.71457 -86.21261 4975 ft 120 kts 100°
2026-05-07 00:29 37.71299 -86.20223 4972 ft 120 kts 100°
2026-05-07 00:29 37.71142 -86.19187 4972 ft 120 kts 100°
2026-05-07 00:30 37.70672 -86.16094 4972 ft 119 kts 101°
2026-05-07 00:30 37.70515 -86.15061 4971 ft 120 kts 100°
2026-05-07 00:30 37.70357 -86.14029 4974 ft 120 kts 101°
2026-05-07 00:30 37.70200 -86.13001 4973 ft 119 kts 100°
2026-05-07 00:31 37.70045 -86.11982 4973 ft 120 kts 100°
2026-05-07 00:31 37.69888 -86.10955 4977 ft 119 kts 101°
2026-05-07 00:31 37.69731 -86.09924 4972 ft 120 kts 101°
2026-05-07 00:31 37.69573 -86.08893 4973 ft 120 kts 100°
2026-05-07 00:32 37.69466 -86.08195 4975 ft 120 kts 100°
2026-05-07 00:32 37.69308 -86.07160 4976 ft 120 kts 100°
2026-05-07 00:32 37.69098 -86.05787 4978 ft 121 kts 101°
2026-05-07 00:32 37.68939 -86.04751 4977 ft 120 kts 100°
2026-05-07 00:33 37.68832 -86.04052 4979 ft 120 kts 101°
2026-05-07 00:33 37.68674 -86.03021 4979 ft 120 kts 100°
2026-05-07 00:33 37.68515 -86.01987 4978 ft 120 kts 100°
2026-05-07 00:33 37.68357 -86.00955 4979 ft 120 kts 100°
2026-05-07 00:34 37.68198 -85.99923 4978 ft 120 kts 100°
2026-05-07 00:34 37.68039 -85.98889 4978 ft 120 kts 101°
2026-05-07 00:34 37.67881 -85.97856 4977 ft 120 kts 101°
2026-05-07 00:34 37.67722 -85.96825 4976 ft 120 kts 101°
2026-05-07 00:35 37.67564 -85.95798 4974 ft 119 kts 101°
2026-05-07 00:35 37.67406 -85.94770 4974 ft 120 kts 101°
2026-05-07 00:35 37.67249 -85.93751 4975 ft 119 kts 101°
2026-05-07 00:35 37.67090 -85.92725 4976 ft 119 kts 100°
2026-05-07 00:36 37.66932 -85.91701 4974 ft 119 kts 101°
2026-05-07 00:36 37.66774 -85.90677 4976 ft 119 kts 100°
2026-05-07 00:36 37.66617 -85.89658 4973 ft 118 kts 101°
2026-05-07 00:36 37.66459 -85.88639 4975 ft 119 kts 101°
2026-05-07 00:37 37.66301 -85.87614 4973 ft 119 kts 101°
2026-05-07 00:37 37.66142 -85.86590 4974 ft 119 kts 101°
2026-05-07 00:37 37.65983 -85.85565 4976 ft 119 kts 100°
2026-05-07 00:37 37.65823 -85.84533 4976 ft 120 kts 101°
2026-05-07 00:38 37.65663 -85.83499 4978 ft 120 kts 101°
2026-05-07 00:38 37.65502 -85.82466 4980 ft 120 kts 101°
2026-05-07 00:38 37.65341 -85.81432 4980 ft 120 kts 101°
2026-05-07 00:38 37.65183 -85.80411 5011 ft 118 kts 101°
2026-05-07 00:39 37.65024 -85.79388 5008 ft 120 kts 101°
2026-05-07 00:39 37.64864 -85.78357 5009 ft 120 kts 101°
2026-05-07 00:39 37.64703 -85.77325 5008 ft 120 kts 101°
2026-05-07 00:39 37.64543 -85.76293 5009 ft 120 kts 101°
2026-05-07 00:40 37.64382 -85.75260 5006 ft 120 kts 101°
2026-05-07 00:40 37.64221 -85.74229 5010 ft 120 kts 101°
2026-05-07 00:40 37.64060 -85.73201 5009 ft 119 kts 101°
2026-05-07 00:40 37.63899 -85.72171 5009 ft 120 kts 101°
2026-05-07 00:41 37.63738 -85.71139 5001 ft 120 kts 101°
2026-05-07 00:41 37.63577 -85.70109 5004 ft 120 kts 101°
2026-05-07 00:41 37.63416 -85.69080 5006 ft 119 kts 101°
2026-05-07 00:41 37.63259 -85.68063 5010 ft 120 kts 99°
2026-05-07 00:42 37.63380 -85.67055 4997 ft 117 kts 62°
2026-05-07 00:42 37.63744 -85.66141 5012 ft 117 kts 63°
2026-05-07 00:42 37.64100 -85.65213 5009 ft 118 kts 63°
2026-05-07 00:42 37.64458 -85.64284 5006 ft 118 kts 62°
2026-05-07 00:43 37.64817 -85.63355 5006 ft 118 kts 62°
2026-05-07 00:43 37.65175 -85.62427 5009 ft 118 kts 62°
2026-05-07 00:43 37.65533 -85.61501 5007 ft 117 kts 62°
2026-05-07 00:43 37.65888 -85.60575 5011 ft 118 kts 62°
2026-05-07 00:44 37.66246 -85.59643 5012 ft 118 kts 62°
2026-05-07 00:44 37.66605 -85.58713 5012 ft 118 kts 62°
2026-05-07 00:44 37.66965 -85.57778 5011 ft 118 kts 62°
2026-05-07 00:44 37.67324 -85.56846 5003 ft 118 kts 62°
2026-05-07 00:45 37.67682 -85.55914 5000 ft 118 kts 62°
2026-05-07 00:45 37.68039 -85.54985 5003 ft 118 kts 62°
2026-05-07 00:45 37.68396 -85.54054 5001 ft 118 kts 62°
2026-05-07 00:45 37.68755 -85.53122 5003 ft 118 kts 62°
2026-05-07 00:46 37.69113 -85.52191 5001 ft 118 kts 63°
2026-05-07 00:46 37.69473 -85.51254 5003 ft 119 kts 62°
2026-05-07 00:46 37.69832 -85.50318 5005 ft 119 kts 62°
2026-05-07 00:46 37.70193 -85.49378 5004 ft 119 kts 62°
2026-05-07 00:47 37.70552 -85.48442 5001 ft 119 kts 63°
2026-05-07 00:47 37.70913 -85.47501 5005 ft 119 kts 62°
2026-05-07 00:47 37.71274 -85.46559 5002 ft 119 kts 63°
2026-05-07 00:47 37.71636 -85.45616 5002 ft 119 kts 62°
2026-05-07 00:48 37.71996 -85.44677 5001 ft 118 kts 62°
2026-05-07 00:48 37.72349 -85.43754 5004 ft 118 kts 62°
2026-05-07 00:48 37.72706 -85.42822 5002 ft 117 kts 62°
2026-05-07 00:48 37.73068 -85.41879 5001 ft 118 kts 63°
2026-05-07 00:49 37.73426 -85.40944 4999 ft 118 kts 63°
2026-05-07 00:49 37.73779 -85.40021 5002 ft 118 kts 63°
2026-05-07 00:49 37.74136 -85.39085 5000 ft 118 kts 63°
2026-05-07 00:49 37.74498 -85.38140 5000 ft 118 kts 62°
2026-05-07 00:50 37.74851 -85.37218 5002 ft 118 kts 63°
2026-05-07 00:50 37.75209 -85.36279 5002 ft 119 kts 63°
2026-05-07 00:50 37.75572 -85.35331 5001 ft 120 kts 63°
2026-05-07 00:50 37.75935 -85.34380 5004 ft 120 kts 63°
2026-05-07 00:51 37.76297 -85.33429 5008 ft 120 kts 63°
2026-05-07 00:51 37.76660 -85.32478 5011 ft 120 kts 62°
2026-05-07 00:51 37.77023 -85.31528 5007 ft 120 kts 62°
2026-05-07 00:51 37.77385 -85.30579 5009 ft 119 kts 62°
2026-05-07 00:52 37.77744 -85.29638 5010 ft 118 kts 62°
2026-05-07 00:52 37.78102 -85.28701 5000 ft 118 kts 62°
2026-05-07 00:52 37.78460 -85.27761 5006 ft 119 kts 63°
2026-05-07 00:52 37.78816 -85.26826 5009 ft 118 kts 63°
2026-05-07 00:53 37.79173 -85.25890 5006 ft 118 kts 63°
2026-05-07 00:53 37.79524 -85.24968 5003 ft 118 kts 63°
2026-05-07 00:53 37.79883 -85.24026 5007 ft 118 kts 63°
2026-05-07 00:53 37.80233 -85.23105 5007 ft 118 kts 63°
2026-05-07 00:54 37.80589 -85.22168 5010 ft 118 kts 63°
2026-05-07 00:54 37.80945 -85.21232 5013 ft 117 kts 63°
2026-05-07 00:54 37.81300 -85.20299 5008 ft 118 kts 63°
2026-05-07 00:54 37.81656 -85.19362 5013 ft 118 kts 63°
2026-05-07 00:55 37.82014 -85.18420 5013 ft 119 kts 63°
2026-05-07 00:55 37.82371 -85.17479 5017 ft 119 kts 63°
2026-05-07 00:55 37.82729 -85.16538 5012 ft 118 kts 63°
2026-05-07 00:55 37.83084 -85.15603 5010 ft 118 kts 63°
2026-05-07 00:56 37.83437 -85.14672 5017 ft 117 kts 63°
2026-05-07 00:56 37.83790 -85.13743 5010 ft 118 kts 63°
2026-05-07 00:56 37.84145 -85.12808 5014 ft 118 kts 63°
2026-05-07 00:56 37.84499 -85.11873 5012 ft 118 kts 63°
2026-05-07 00:57 37.84854 -85.10935 5013 ft 118 kts 63°
2026-05-07 00:57 37.85209 -85.09998 5018 ft 118 kts 63°
2026-05-07 00:57 37.85564 -85.09063 5013 ft 118 kts 63°
2026-05-07 00:57 37.85917 -85.08131 5018 ft 117 kts 63°
2026-05-07 00:58 37.86116 -85.07130 5011 ft 119 kts 82°
2026-05-07 00:58 37.86231 -85.06095 5013 ft 119 kts 80°
2026-05-07 00:58 37.86363 -85.05062 5014 ft 119 kts 80°
2026-05-07 00:58 37.86499 -85.04027 5013 ft 119 kts 79°
2026-05-07 00:59 37.86772 -85.01961 4861 ft 117 kts 79°
2026-05-07 00:59 37.86907 -85.00951 4754 ft 115 kts 78°
2026-05-07 00:59 37.87041 -84.99960 4650 ft 113 kts 79°
2026-05-07 01:00 37.87173 -84.98982 4542 ft 113 kts 78°
2026-05-07 01:00 37.87303 -84.98018 4439 ft 112 kts 78°
2026-05-07 01:00 37.87437 -84.97031 4334 ft 113 kts 78°
2026-05-07 01:00 37.87567 -84.96068 4233 ft 113 kts 78°
2026-05-07 01:01 37.87699 -84.95088 4131 ft 113 kts 78°
2026-05-07 01:01 37.87831 -84.94109 4032 ft 113 kts 78°
2026-05-07 01:01 37.87962 -84.93132 3930 ft 113 kts 78°
2026-05-07 01:01 37.88093 -84.92156 3824 ft 112 kts 78°
2026-05-07 01:02 37.88224 -84.91183 3724 ft 112 kts 78°
2026-05-07 01:02 37.88354 -84.90217 3621 ft 111 kts 78°
2026-05-07 01:02 37.88484 -84.89252 3523 ft 111 kts 78°
2026-05-07 01:02 37.88612 -84.88295 3423 ft 111 kts 77°
2026-05-07 01:03 37.88741 -84.87333 3324 ft 111 kts 77°
2026-05-07 01:03 37.88871 -84.86371 3222 ft 111 kts 77°
2026-05-07 01:03 37.89000 -84.85402 3121 ft 112 kts 77°
2026-05-07 01:03 37.89131 -84.84428 3021 ft 112 kts 78°
2026-05-07 01:04 37.89260 -84.83470 3008 ft 110 kts 77°
2026-05-07 01:04 37.89388 -84.82526 3004 ft 108 kts 77°
2026-05-07 01:04 37.89513 -84.81598 2998 ft 106 kts 77°
2026-05-07 01:04 37.89635 -84.80680 3002 ft 105 kts 77°
2026-05-07 01:05 37.89758 -84.79769 3004 ft 105 kts 77°
2026-05-07 01:05 37.89879 -84.78862 3007 ft 104 kts 77°
2026-05-07 01:05 37.90000 -84.77955 3005 ft 104 kts 77°
2026-05-07 01:05 37.90120 -84.77052 3006 ft 104 kts 78°
2026-05-07 01:06 37.90240 -84.76151 3004 ft 104 kts 77°
2026-05-07 01:06 37.90353 -84.75249 3004 ft 103 kts 83°
2026-05-07 01:06 37.90168 -84.74376 3005 ft 106 kts 122°
2026-05-07 01:06 37.89595 -84.73803 3009 ft 107 kts 161°
2026-05-07 01:07 37.88866 -84.73782 3014 ft 107 kts 199°
2026-05-07 01:07 37.88251 -84.74287 3018 ft 106 kts 225°
2026-05-07 01:07 37.87774 -84.74977 3023 ft 103 kts 260°
2026-05-07 01:07 37.87847 -84.75846 3024 ft 99 kts 297°
2026-05-07 01:08 37.88290 -84.76468 3020 ft 97 kts 332°
2026-05-07 01:08 37.88942 -84.76632 3020 ft 97 kts
2026-05-07 01:08 37.89550 -84.76259 3021 ft 99 kts 39°
2026-05-07 01:08 37.90076 -84.75690 3021 ft 99 kts 39°
2026-05-07 01:09 37.90593 -84.75112 3022 ft 99 kts 40°
2026-05-07 01:09 37.91124 -84.74521 2975 ft 104 kts 39°
2026-05-07 01:09 37.91681 -84.73898 2888 ft 109 kts 39°
2026-05-07 01:09 37.92260 -84.73250 2796 ft 112 kts 39°
2026-05-07 01:10 37.92852 -84.72589 2702 ft 114 kts 39°
2026-05-07 01:10 37.93446 -84.71927 2609 ft 114 kts 39°
2026-05-07 01:10 37.94041 -84.71263 2519 ft 113 kts 39°
2026-05-07 01:10 37.94599 -84.70641 2527 ft 103 kts 38°
2026-05-07 01:11 37.95122 -84.70063 2519 ft 96 kts 38°
2026-05-07 01:11 37.95614 -84.69518 2516 ft 92 kts 38°
2026-05-07 01:11 37.96091 -84.68989 2516 ft 90 kts 38°
2026-05-07 01:11 37.96559 -84.68469 2513 ft 89 kts 38°
2026-05-07 01:12 37.97030 -84.67946 2475 ft 92 kts 38°
2026-05-07 01:12 37.97521 -84.67396 2387 ft 98 kts 38°
2026-05-07 01:12 37.98041 -84.66810 2260 ft 100 kts 39°
2026-05-07 01:12 37.98553 -84.66232 2123 ft 97 kts 38°
2026-05-07 01:13 37.99057 -84.65666 1984 ft 96 kts 38°
2026-05-07 01:13 37.99557 -84.65105 1846 ft 96 kts 38°
2026-05-07 01:13 38.00058 -84.64544 1723 ft 92 kts 38°
2026-05-07 01:13 38.00522 -84.64032 1599 ft 87 kts 38°
2026-05-07 01:14 38.00982 -84.63521 1472 ft 89 kts 38°
2026-05-07 01:14 38.01446 -84.63004 1342 ft 89 kts 40°
2026-05-07 01:14 38.01905 -84.62490 1213 ft 84 kts 41°
2026-05-07 01:14 38.02344 -84.62006 1109 ft 84 kts 41°
2026-05-07 01:15 38.02774 -84.61514 994 ft 83 kts 42°
2026-05-07 01:15 38.03139 -84.61103 953 ft 57 kts 41°
2026-05-07 01:15 38.03385 -84.60820 957 ft 40 kts 41°
2026-05-07 01:15 38.03566 -84.60621 964 ft 31 kts 41°
2026-05-07 01:16 38.03648 -84.60606 963 ft 10 kts 302°
2026-05-07 01:16 38.03673 -84.60641 964 ft 0 kts 321°
2026-05-07 01:16 38.03674 -84.60642 964 ft 2 kts 332°
2026-05-07 01:16 38.03693 -84.60624 965 ft 4 kts 62°
2026-05-07 01:17 38.03699 -84.60615 964 ft 0 kts 42°
2026-05-07 01:17 38.03706 -84.60607 965 ft 5 kts 43°
2026-05-07 01:17 38.03771 -84.60534 966 ft 17 kts 41°
2026-05-07 01:17 38.03849 -84.60487 969 ft 12 kts 313°
2026-05-07 01:18 38.03901 -84.60547 976 ft 9 kts 343°
2026-05-07 01:18 38.03956 -84.60570 978 ft 10 kts 313°
2026-05-07 01:18 38.03964 -84.60625 974 ft 11 kts 262°
2026-05-07 01:18 38.03948 -84.60791 972 ft 18 kts 262°
2026-05-07 01:19 38.03909 -84.60876 969 ft 17 kts 205°
2026-05-07 01:19 38.03888 -84.61011 968 ft 16 kts 262°
2026-05-07 01:19 38.03782 -84.61073 966 ft 14 kts 246°
2026-05-07 01:19 38.03763 -84.61195 962 ft 14 kts 263°
2026-05-07 01:20 38.03755 -84.61286 963 ft 2 kts 296°
2026-05-07 01:20 38.03758 -84.61290 962 ft 0 kts 322°